owner,sensor,date,latitude,longitude,sea_surface_height_above_sea_level,qcFlag 
COMPS,ioos:station:USF.COMPS:ARP:1,2019-10-01T00:54:00,28.4330,-82.6670,-0.171,11114222 
COMPS,ioos:station:USF.COMPS:ARP:1,2019-10-01T01:54:00,28.4330,-82.6670,-0.278,11114222 
COMPS,ioos:station:USF.COMPS:ARP:1,2019-10-01T02:54:00,28.4330,-82.6670,-0.193,11114222 
COMPS,ioos:station:USF.COMPS:ARP:1,2019-10-01T03:54:00,28.4330,-82.6670,0.039,11111222 
COMPS,ioos:station:USF.COMPS:ARP:1,2019-10-01T04:54:00,28.4330,-82.6670,0.298,11111222 
COMPS,ioos:station:USF.COMPS:ARP:1,2019-10-01T05:54:00,28.4330,-82.6670,0.54,11111222 
COMPS,ioos:station:USF.COMPS:ARP:1,2019-10-01T06:54:00,28.4330,-82.6670,0.682,11111222 
COMPS,ioos:station:USF.COMPS:ARP:1,2019-10-01T07:54:00,28.4330,-82.6670,0.602,11111222 
COMPS,ioos:station:USF.COMPS:ARP:1,2019-10-01T08:54:00,28.4330,-82.6670,0.471,11111222 
COMPS,ioos:station:USF.COMPS:ARP:1,2019-10-01T09:54:00,28.4330,-82.6670,0.303,11111222 
COMPS,ioos:station:USF.COMPS:ARP:1,2019-10-01T10:48:00,28.4330,-82.6670,0.147,11111222 
COMPS,ioos:station:USF.COMPS:ARP:1,2019-10-01T11:54:00,28.4330,-82.6670,-0.058,11114222 
COMPS,ioos:station:USF.COMPS:ARP:1,2019-10-01T12:54:00,28.4330,-82.6670,-0.206,11114222 
COMPS,ioos:station:USF.COMPS:ARP:1,2019-10-01T13:54:00,28.4330,-82.6670,-0.329,11114222 
COMPS,ioos:station:USF.COMPS:ARP:1,2019-10-01T14:54:00,28.4330,-82.6670,-0.419,11114222 
COMPS,ioos:station:USF.COMPS:ARP:1,2019-10-01T15:54:00,28.4330,-82.6670,-0.361,11114222 
COMPS,ioos:station:USF.COMPS:ARP:1,2019-10-01T16:54:00,28.4330,-82.6670,-0.124,11114222 
COMPS,ioos:station:USF.COMPS:ARP:1,2019-10-01T17:54:00,28.4330,-82.6670,0.201,11111222 
COMPS,ioos:station:USF.COMPS:ARP:1,2019-10-01T18:54:00,28.4330,-82.6670,0.42,11111222 
COMPS,ioos:station:USF.COMPS:ARP:1,2019-10-01T19:54:00,28.4330,-82.6670,0.55,11111222 
COMPS,ioos:station:USF.COMPS:ARP:1,2019-10-01T20:54:00,28.4330,-82.6670,0.526,11111222 
COMPS,ioos:station:USF.COMPS:ARP:1,2019-10-01T21:54:00,28.4330,-82.6670,0.457,11111222 
COMPS,ioos:station:USF.COMPS:ARP:1,2019-10-01T22:54:00,28.4330,-82.6670,0.306,11111222 
COMPS,ioos:station:USF.COMPS:ARP:1,2019-10-01T23:54:00,28.4330,-82.6670,0.153,11111222 
COMPS,ioos:station:USF.COMPS:ARP:1,2019-10-02T00:54:00,28.4330,-82.6670,0.016,11111222 
COMPS,ioos:station:USF.COMPS:ARP:1,2019-10-02T01:54:00,28.4330,-82.6670,-0.095,11114222 
COMPS,ioos:station:USF.COMPS:ARP:1,2019-10-02T02:54:00,28.4330,-82.6670,-0.082,11114222 
COMPS,ioos:station:USF.COMPS:ARP:1,2019-10-02T03:54:00,28.4330,-82.6670,0.085,11111222 
COMPS,ioos:station:USF.COMPS:ARP:1,2019-10-02T04:54:00,28.4330,-82.6670,0.289,11111222 
COMPS,ioos:station:USF.COMPS:ARP:1,2019-10-02T05:54:00,28.4330,-82.6670,0.502,11111222 
COMPS,ioos:station:USF.COMPS:ARP:1,2019-10-02T06:54:00,28.4330,-82.6670,0.68,11111222 
COMPS,ioos:station:USF.COMPS:ARP:1,2019-10-02T07:54:00,28.4330,-82.6670,0.755,11111222 
COMPS,ioos:station:USF.COMPS:ARP:1,2019-10-02T08:54:00,28.4330,-82.6670,0.664,11111222 
COMPS,ioos:station:USF.COMPS:ARP:1,2019-10-02T09:54:00,28.4330,-82.6670,0.555,11111222 
COMPS,ioos:station:USF.COMPS:ARP:1,2019-10-02T10:54:00,28.4330,-82.6670,0.383,11111222 
COMPS,ioos:station:USF.COMPS:ARP:1,2019-10-02T11:54:00,28.4330,-82.6670,0.188,11111222 
COMPS,ioos:station:USF.COMPS:ARP:1,2019-10-02T12:54:00,28.4330,-82.6670,0.022,11111222 
COMPS,ioos:station:USF.COMPS:ARP:1,2019-10-02T13:54:00,28.4330,-82.6670,-0.142,11114222 
COMPS,ioos:station:USF.COMPS:ARP:1,2019-10-02T14:54:00,28.4330,-82.6670,-0.276,11114222 
COMPS,ioos:station:USF.COMPS:ARP:1,2019-10-02T15:54:00,28.4330,-82.6670,-0.363,11114222 
COMPS,ioos:station:USF.COMPS:ARP:1,2019-10-02T16:54:00,28.4330,-82.6670,-0.263,11114222 
COMPS,ioos:station:USF.COMPS:ARP:1,2019-10-02T17:54:00,28.4330,-82.6670,-0.029,11114222 
COMPS,ioos:station:USF.COMPS:ARP:1,2019-10-02T18:54:00,28.4330,-82.6670,0.226,11111222 
COMPS,ioos:station:USF.COMPS:ARP:1,2019-10-02T19:54:00,28.4330,-82.6670,0.417,11111222 
COMPS,ioos:station:USF.COMPS:ARP:1,2019-10-02T20:48:00,28.4330,-82.6670,0.513,11111222 
COMPS,ioos:station:USF.COMPS:ARP:1,2019-10-02T21:54:00,28.4330,-82.6670,0.507,11111222 
COMPS,ioos:station:USF.COMPS:ARP:1,2019-10-02T22:54:00,28.4330,-82.6670,0.408,11111222 
COMPS,ioos:station:USF.COMPS:ARP:1,2019-10-02T23:54:00,28.4330,-82.6670,0.278,11111222 
COMPS,ioos:station:USF.COMPS:ARP:1,2019-10-03T00:54:00,28.4330,-82.6670,0.15,11111222 
COMPS,ioos:station:USF.COMPS:ARP:1,2019-10-03T01:54:00,28.4330,-82.6670,0.052,11111222 
COMPS,ioos:station:USF.COMPS:ARP:1,2019-10-03T02:54:00,28.4330,-82.6670,0.049,11111222 
COMPS,ioos:station:USF.COMPS:ARP:1,2019-10-03T03:54:00,28.4330,-82.6670,0.163,11111222 
COMPS,ioos:station:USF.COMPS:ARP:1,2019-10-03T04:54:00,28.4330,-82.6670,0.29,11111222 
COMPS,ioos:station:USF.COMPS:ARP:1,2019-10-03T05:54:00,28.4330,-82.6670,0.468,11111222 
COMPS,ioos:station:USF.COMPS:ARP:1,2019-10-03T06:54:00,28.4330,-82.6670,0.637,11111222 
COMPS,ioos:station:USF.COMPS:ARP:1,2019-10-03T07:54:00,28.4330,-82.6670,0.75,11111222 
COMPS,ioos:station:USF.COMPS:ARP:1,2019-10-03T08:54:00,28.4330,-82.6670,0.749,11111222 
COMPS,ioos:station:USF.COMPS:ARP:1,2019-10-03T09:54:00,28.4330,-82.6670,0.652,11111222 
COMPS,ioos:station:USF.COMPS:ARP:1,2019-10-03T10:54:00,28.4330,-82.6670,0.521,11111222 
COMPS,ioos:station:USF.COMPS:ARP:1,2019-10-03T11:54:00,28.4330,-82.6670,0.351,11111222 
COMPS,ioos:station:USF.COMPS:ARP:1,2019-10-03T12:54:00,28.4330,-82.6670,0.19,11111222 
COMPS,ioos:station:USF.COMPS:ARP:1,2019-10-03T13:48:00,28.4330,-82.6670,0.048,11111222 
COMPS,ioos:station:USF.COMPS:ARP:1,2019-10-03T14:54:00,28.4330,-82.6670,-0.111,11114222 
COMPS,ioos:station:USF.COMPS:ARP:1,2019-10-03T15:54:00,28.4330,-82.6670,-0.216,11114222 
COMPS,ioos:station:USF.COMPS:ARP:1,2019-10-03T16:54:00,28.4330,-82.6670,-0.167,11114222 
COMPS,ioos:station:USF.COMPS:ARP:1,2019-10-03T17:54:00,28.4330,-82.6670,-0.01,11114222 
COMPS,ioos:station:USF.COMPS:ARP:1,2019-10-03T18:54:00,28.4330,-82.6670,0.167,11111222 
COMPS,ioos:station:USF.COMPS:ARP:1,2019-10-03T19:54:00,28.4330,-82.6670,0.357,11111222 
COMPS,ioos:station:USF.COMPS:ARP:1,2019-10-03T20:54:00,28.4330,-82.6670,0.475,11111222 
COMPS,ioos:station:USF.COMPS:ARP:1,2019-10-03T21:54:00,28.4330,-82.6670,0.518,11111222 
COMPS,ioos:station:USF.COMPS:ARP:1,2019-10-03T22:54:00,28.4330,-82.6670,0.483,11111222 
COMPS,ioos:station:USF.COMPS:ARP:1,2019-10-03T23:54:00,28.4330,-82.6670,0.404,11111222 
COMPS,ioos:station:USF.COMPS:ARP:1,2019-10-04T00:54:00,28.4330,-82.6670,0.319,11111222 
COMPS,ioos:station:USF.COMPS:ARP:1,2019-10-04T01:54:00,28.4330,-82.6670,0.219,11111222 
COMPS,ioos:station:USF.COMPS:ARP:1,2019-10-04T02:54:00,28.4330,-82.6670,0.152,11111222 
COMPS,ioos:station:USF.COMPS:ARP:1,2019-10-04T03:54:00,28.4330,-82.6670,0.159,11111222 
COMPS,ioos:station:USF.COMPS:ARP:1,2019-10-04T04:54:00,28.4330,-82.6670,0.257,11111222 
COMPS,ioos:station:USF.COMPS:ARP:1,2019-10-04T05:54:00,28.4330,-82.6670,0.388,11111222 
COMPS,ioos:station:USF.COMPS:ARP:1,2019-10-04T06:54:00,28.4330,-82.6670,0.534,11111222 
COMPS,ioos:station:USF.COMPS:ARP:1,2019-10-04T07:54:00,28.4330,-82.6670,0.684,11111222 
COMPS,ioos:station:USF.COMPS:ARP:1,2019-10-04T08:54:00,28.4330,-82.6670,0.751,11111222 
COMPS,ioos:station:USF.COMPS:ARP:1,2019-10-04T09:54:00,28.4330,-82.6670,0.715,11111222 
COMPS,ioos:station:USF.COMPS:ARP:1,2019-10-04T10:54:00,28.4330,-82.6670,0.598,11111222 
COMPS,ioos:station:USF.COMPS:ARP:1,2019-10-04T11:54:00,28.4330,-82.6670,0.446,11111222 
COMPS,ioos:station:USF.COMPS:ARP:1,2019-10-04T12:54:00,28.4330,-82.6670,0.302,11111222 
COMPS,ioos:station:USF.COMPS:ARP:1,2019-10-04T13:54:00,28.4330,-82.6670,0.145,11111222 
COMPS,ioos:station:USF.COMPS:ARP:1,2019-10-04T14:54:00,28.4330,-82.6670,-0.001,11114222 
COMPS,ioos:station:USF.COMPS:ARP:1,2019-10-04T15:54:00,28.4330,-82.6670,-0.12,11114222 
COMPS,ioos:station:USF.COMPS:ARP:1,2019-10-04T16:54:00,28.4330,-82.6670,-0.192,11114222 
COMPS,ioos:station:USF.COMPS:ARP:1,2019-10-04T17:54:00,28.4330,-82.6670,-0.115,11114222 
COMPS,ioos:station:USF.COMPS:ARP:1,2019-10-04T18:54:00,28.4330,-82.6670,0.039,11111222 
COMPS,ioos:station:USF.COMPS:ARP:1,2019-10-04T19:54:00,28.4330,-82.6670,0.177,11111222 
COMPS,ioos:station:USF.COMPS:ARP:1,2019-10-04T20:54:00,28.4330,-82.6670,0.319,11111222 
COMPS,ioos:station:USF.COMPS:ARP:1,2019-10-04T21:54:00,28.4330,-82.6670,0.433,11111222 
COMPS,ioos:station:USF.COMPS:ARP:1,2019-10-04T22:54:00,28.4330,-82.6670,0.483,11111222 
COMPS,ioos:station:USF.COMPS:ARP:1,2019-10-04T23:54:00,28.4330,-82.6670,0.46,11111222 
COMPS,ioos:station:USF.COMPS:ARP:1,2019-10-05T00:54:00,28.4330,-82.6670,0.408,11111222 
COMPS,ioos:station:USF.COMPS:ARP:1,2019-10-05T01:54:00,28.4330,-82.6670,0.332,11111222 
COMPS,ioos:station:USF.COMPS:ARP:1,2019-10-05T02:54:00,28.4330,-82.6670,0.258,11111222 
COMPS,ioos:station:USF.COMPS:ARP:1,2019-10-05T03:54:00,28.4330,-82.6670,0.225,11111222 
COMPS,ioos:station:USF.COMPS:ARP:1,2019-10-05T04:54:00,28.4330,-82.6670,0.272,11111222 
COMPS,ioos:station:USF.COMPS:ARP:1,2019-10-05T05:54:00,28.4330,-82.6670,0.316,11111222 
COMPS,ioos:station:USF.COMPS:ARP:1,2019-10-05T06:54:00,28.4330,-82.6670,0.422,11111222 
COMPS,ioos:station:USF.COMPS:ARP:1,2019-10-05T07:54:00,28.4330,-82.6670,0.526,11111222 
COMPS,ioos:station:USF.COMPS:ARP:1,2019-10-05T08:54:00,28.4330,-82.6670,0.619,11111222 
COMPS,ioos:station:USF.COMPS:ARP:1,2019-10-05T09:54:00,28.4330,-82.6670,0.665,11111222 
COMPS,ioos:station:USF.COMPS:ARP:1,2019-10-05T10:54:00,28.4330,-82.6670,0.607,11111222 
COMPS,ioos:station:USF.COMPS:ARP:1,2019-10-05T11:54:00,28.4330,-82.6670,0.518,11111222 
COMPS,ioos:station:USF.COMPS:ARP:1,2019-10-05T12:54:00,28.4330,-82.6670,0.402,11111222 
COMPS,ioos:station:USF.COMPS:ARP:1,2019-10-05T13:54:00,28.4330,-82.6670,0.252,11111222 
COMPS,ioos:station:USF.COMPS:ARP:1,2019-10-05T14:54:00,28.4330,-82.6670,0.103,11111222 
COMPS,ioos:station:USF.COMPS:ARP:1,2019-10-05T15:54:00,28.4330,-82.6670,-0.017,11114222 
COMPS,ioos:station:USF.COMPS:ARP:1,2019-10-05T16:54:00,28.4330,-82.6670,-0.122,11114222 
COMPS,ioos:station:USF.COMPS:ARP:1,2019-10-05T17:54:00,28.4330,-82.6670,-0.201,11114222 
COMPS,ioos:station:USF.COMPS:ARP:1,2019-10-05T18:54:00,28.4330,-82.6670,-0.168,11114222 
COMPS,ioos:station:USF.COMPS:ARP:1,2019-10-05T19:54:00,28.4330,-82.6670,-0.043,11114222 
COMPS,ioos:station:USF.COMPS:ARP:1,2019-10-05T20:54:00,28.4330,-82.6670,0.091,11111222 
COMPS,ioos:station:USF.COMPS:ARP:1,2019-10-05T21:54:00,28.4330,-82.6670,0.214,11111222 
COMPS,ioos:station:USF.COMPS:ARP:1,2019-10-05T22:54:00,28.4330,-82.6670,0.308,11111222 
COMPS,ioos:station:USF.COMPS:ARP:1,2019-10-05T23:54:00,28.4330,-82.6670,0.368,11111222 
COMPS,ioos:station:USF.COMPS:ARP:1,2019-10-06T00:54:00,28.4330,-82.6670,0.294,11111222 
COMPS,ioos:station:USF.COMPS:ARP:1,2019-10-06T01:54:00,28.4330,-82.6670,0.233,11111222 
COMPS,ioos:station:USF.COMPS:ARP:1,2019-10-06T02:54:00,28.4330,-82.6670,0.234,11111222 
COMPS,ioos:station:USF.COMPS:ARP:1,2019-10-06T03:54:00,28.4330,-82.6670,0.182,11111222 
COMPS,ioos:station:USF.COMPS:ARP:1,2019-10-06T04:54:00,28.4330,-82.6670,0.198,11111222 
COMPS,ioos:station:USF.COMPS:ARP:1,2019-10-06T05:54:00,28.4330,-82.6670,0.246,11111222 
COMPS,ioos:station:USF.COMPS:ARP:1,2019-10-06T06:54:00,28.4330,-82.6670,0.262,11111222 
COMPS,ioos:station:USF.COMPS:ARP:1,2019-10-06T07:54:00,28.4330,-82.6670,0.317,11111222 
COMPS,ioos:station:USF.COMPS:ARP:1,2019-10-06T08:54:00,28.4330,-82.6670,0.458,11111222 
COMPS,ioos:station:USF.COMPS:ARP:1,2019-10-06T09:54:00,28.4330,-82.6670,0.568,11111222 
COMPS,ioos:station:USF.COMPS:ARP:1,2019-10-06T10:54:00,28.4330,-82.6670,0.603,11111222 
COMPS,ioos:station:USF.COMPS:ARP:1,2019-10-06T11:54:00,28.4330,-82.6670,0.581,11111222 
COMPS,ioos:station:USF.COMPS:ARP:1,2019-10-06T12:54:00,28.4330,-82.6670,0.534,11111222 
COMPS,ioos:station:USF.COMPS:ARP:1,2019-10-06T13:54:00,28.4330,-82.6670,0.401,11111222 
COMPS,ioos:station:USF.COMPS:ARP:1,2019-10-06T14:54:00,28.4330,-82.6670,0.274,11111222 
COMPS,ioos:station:USF.COMPS:ARP:1,2019-10-06T15:54:00,28.4330,-82.6670,0.16,11111222 
COMPS,ioos:station:USF.COMPS:ARP:1,2019-10-06T16:54:00,28.4330,-82.6670,0.052,11111222 
COMPS,ioos:station:USF.COMPS:ARP:1,2019-10-06T17:54:00,28.4330,-82.6670,-0.059,11114222 
COMPS,ioos:station:USF.COMPS:ARP:1,2019-10-06T18:54:00,28.4330,-82.6670,-0.144,11114222 
COMPS,ioos:station:USF.COMPS:ARP:1,2019-10-06T19:48:00,28.4330,-82.6670,-0.115,11114222 
COMPS,ioos:station:USF.COMPS:ARP:1,2019-10-06T20:54:00,28.4330,-82.6670,-0.069,11114222 
COMPS,ioos:station:USF.COMPS:ARP:1,2019-10-06T21:54:00,28.4330,-82.6670,0.025,11111222 
COMPS,ioos:station:USF.COMPS:ARP:1,2019-10-06T22:54:00,28.4330,-82.6670,0.152,11111222 
COMPS,ioos:station:USF.COMPS:ARP:1,2019-10-06T23:54:00,28.4330,-82.6670,0.266,11111222 
COMPS,ioos:station:USF.COMPS:ARP:1,2019-10-07T00:54:00,28.4330,-82.6670,0.368,11111222 
COMPS,ioos:station:USF.COMPS:ARP:1,2019-10-07T01:54:00,28.4330,-82.6670,0.39,11111222 
COMPS,ioos:station:USF.COMPS:ARP:1,2019-10-07T02:48:00,28.4330,-82.6670,0.338,11111222 
COMPS,ioos:station:USF.COMPS:ARP:1,2019-10-07T03:54:00,28.4330,-82.6670,0.314,11111222 
COMPS,ioos:station:USF.COMPS:ARP:1,2019-10-07T04:54:00,28.4330,-82.6670,0.233,11111222 
COMPS,ioos:station:USF.COMPS:ARP:1,2019-10-07T05:54:00,28.4330,-82.6670,0.199,11111222 
COMPS,ioos:station:USF.COMPS:ARP:1,2019-10-07T06:54:00,28.4330,-82.6670,0.124,11111222 
COMPS,ioos:station:USF.COMPS:ARP:1,2019-10-07T07:54:00,28.4330,-82.6670,0.102,11111222 
COMPS,ioos:station:USF.COMPS:ARP:1,2019-10-07T08:54:00,28.4330,-82.6670,0.221,11111222 
COMPS,ioos:station:USF.COMPS:ARP:1,2019-10-07T09:54:00,28.4330,-82.6670,0.313,11111222 
COMPS,ioos:station:USF.COMPS:ARP:1,2019-10-07T10:54:00,28.4330,-82.6670,0.483,11111222 
COMPS,ioos:station:USF.COMPS:ARP:1,2019-10-07T11:54:00,28.4330,-82.6670,0.612,11111222 
COMPS,ioos:station:USF.COMPS:ARP:1,2019-10-07T13:54:00,28.4330,-82.6670,0.588,11111222 
COMPS,ioos:station:USF.COMPS:ARP:1,2019-10-07T14:54:00,28.4330,-82.6670,0.49,11111222 
COMPS,ioos:station:USF.COMPS:ARP:1,2019-10-07T15:54:00,28.4330,-82.6670,0.346,11111222 
COMPS,ioos:station:USF.COMPS:ARP:1,2019-10-07T16:54:00,28.4330,-82.6670,0.209,11111222 
COMPS,ioos:station:USF.COMPS:ARP:1,2019-10-07T17:54:00,28.4330,-82.6670,0.075,11111222 
COMPS,ioos:station:USF.COMPS:ARP:1,2019-10-07T18:48:00,28.4330,-82.6670,-0.024,11114222 
COMPS,ioos:station:USF.COMPS:ARP:1,2019-10-07T19:54:00,28.4330,-82.6670,-0.113,11114222 
COMPS,ioos:station:USF.COMPS:ARP:1,2019-10-07T20:54:00,28.4330,-82.6670,-0.108,11114222 
COMPS,ioos:station:USF.COMPS:ARP:1,2019-10-07T21:54:00,28.4330,-82.6670,-0.002,11114222 
COMPS,ioos:station:USF.COMPS:ARP:1,2019-10-07T22:54:00,28.4330,-82.6670,0.083,11111222 
COMPS,ioos:station:USF.COMPS:ARP:1,2019-10-07T23:54:00,28.4330,-82.6670,0.171,11111222 
COMPS,ioos:station:USF.COMPS:ARP:1,2019-10-08T00:54:00,28.4330,-82.6670,0.204,11111222 
COMPS,ioos:station:USF.COMPS:ARP:1,2019-10-08T01:54:00,28.4330,-82.6670,0.273,11111222 
COMPS,ioos:station:USF.COMPS:ARP:1,2019-10-08T02:54:00,28.4330,-82.6670,0.268,11111222 
COMPS,ioos:station:USF.COMPS:ARP:1,2019-10-08T03:48:00,28.4330,-82.6670,0.274,11111222 
COMPS,ioos:station:USF.COMPS:ARP:1,2019-10-08T04:54:00,28.4330,-82.6670,0.225,11111222 
COMPS,ioos:station:USF.COMPS:ARP:1,2019-10-08T05:54:00,28.4330,-82.6670,0.194,11111222 
COMPS,ioos:station:USF.COMPS:ARP:1,2019-10-08T06:54:00,28.4330,-82.6670,0.162,11111222 
COMPS,ioos:station:USF.COMPS:ARP:1,2019-10-08T07:54:00,28.4330,-82.6670,0.246,11111222 
COMPS,ioos:station:USF.COMPS:ARP:1,2019-10-08T08:54:00,28.4330,-82.6670,0.364,11111222 
COMPS,ioos:station:USF.COMPS:ARP:1,2019-10-08T09:54:00,28.4330,-82.6670,0.444,11111222 
COMPS,ioos:station:USF.COMPS:ARP:1,2019-10-08T10:54:00,28.4330,-82.6670,0.534,11111222 
COMPS,ioos:station:USF.COMPS:ARP:1,2019-10-08T11:54:00,28.4330,-82.6670,0.611,11111222 
COMPS,ioos:station:USF.COMPS:ARP:1,2019-10-08T12:54:00,28.4330,-82.6670,0.651,11111222 
COMPS,ioos:station:USF.COMPS:ARP:1,2019-10-08T13:54:00,28.4330,-82.6670,0.647,11111222 
COMPS,ioos:station:USF.COMPS:ARP:1,2019-10-08T14:54:00,28.4330,-82.6670,0.559,11111222 
COMPS,ioos:station:USF.COMPS:ARP:1,2019-10-08T15:54:00,28.4330,-82.6670,0.438,11111222 
COMPS,ioos:station:USF.COMPS:ARP:1,2019-10-08T16:54:00,28.4330,-82.6670,0.305,11111222 
COMPS,ioos:station:USF.COMPS:ARP:1,2019-10-08T17:54:00,28.4330,-82.6670,0.191,11111222 
COMPS,ioos:station:USF.COMPS:ARP:1,2019-10-08T18:54:00,28.4330,-82.6670,0.09,11111222 
COMPS,ioos:station:USF.COMPS:ARP:1,2019-10-08T19:54:00,28.4330,-82.6670,0.006,11111222 
COMPS,ioos:station:USF.COMPS:ARP:1,2019-10-08T20:54:00,28.4330,-82.6670,-0.012,11114222 
COMPS,ioos:station:USF.COMPS:ARP:1,2019-10-08T21:54:00,28.4330,-82.6670,0.009,11111222 
COMPS,ioos:station:USF.COMPS:ARP:1,2019-10-08T22:54:00,28.4330,-82.6670,0.147,11111222 
COMPS,ioos:station:USF.COMPS:ARP:1,2019-10-08T23:54:00,28.4330,-82.6670,0.076,11111222 
COMPS,ioos:station:USF.COMPS:ARP:1,2019-10-09T00:54:00,28.4330,-82.6670,0.219,11111222 
COMPS,ioos:station:USF.COMPS:ARP:1,2019-10-09T01:54:00,28.4330,-82.6670,0.371,11111222 
COMPS,ioos:station:USF.COMPS:ARP:1,2019-10-09T02:54:00,28.4330,-82.6670,0.46,11111222 
COMPS,ioos:station:USF.COMPS:ARP:1,2019-10-09T03:54:00,28.4330,-82.6670,0.506,11111222 
COMPS,ioos:station:USF.COMPS:ARP:1,2019-10-09T04:54:00,28.4330,-82.6670,0.404,11111222 
COMPS,ioos:station:USF.COMPS:ARP:1,2019-10-09T05:54:00,28.4330,-82.6670,0.332,11111222 
COMPS,ioos:station:USF.COMPS:ARP:1,2019-10-09T06:54:00,28.4330,-82.6670,0.244,11111222 
COMPS,ioos:station:USF.COMPS:ARP:1,2019-10-09T07:54:00,28.4330,-82.6670,0.146,11111222 
COMPS,ioos:station:USF.COMPS:ARP:1,2019-10-09T08:54:00,28.4330,-82.6670,0.124,11111222 
COMPS,ioos:station:USF.COMPS:ARP:1,2019-10-09T09:54:00,28.4330,-82.6670,0.138,11111222 
COMPS,ioos:station:USF.COMPS:ARP:1,2019-10-09T10:54:00,28.4330,-82.6670,0.233,11111222 
COMPS,ioos:station:USF.COMPS:ARP:1,2019-10-09T11:54:00,28.4330,-82.6670,0.39,11111222 
COMPS,ioos:station:USF.COMPS:ARP:1,2019-10-09T12:54:00,28.4330,-82.6670,0.524,11111222 
COMPS,ioos:station:USF.COMPS:ARP:1,2019-10-09T13:54:00,28.4330,-82.6670,0.604,11111222 
COMPS,ioos:station:USF.COMPS:ARP:1,2019-10-09T14:54:00,28.4330,-82.6670,0.63,11111222 
COMPS,ioos:station:USF.COMPS:ARP:1,2019-10-09T15:54:00,28.4330,-82.6670,0.573,11111222 
COMPS,ioos:station:USF.COMPS:ARP:1,2019-10-09T16:54:00,28.4330,-82.6670,0.421,11111222 
COMPS,ioos:station:USF.COMPS:ARP:1,2019-10-09T17:54:00,28.4330,-82.6670,0.289,11111222 
COMPS,ioos:station:USF.COMPS:ARP:1,2019-10-09T18:54:00,28.4330,-82.6670,0.137,11111222 
COMPS,ioos:station:USF.COMPS:ARP:1,2019-10-09T19:54:00,28.4330,-82.6670,0.002,11111222 
COMPS,ioos:station:USF.COMPS:ARP:1,2019-10-09T20:54:00,28.4330,-82.6670,-0.146,11114222 
COMPS,ioos:station:USF.COMPS:ARP:1,2019-10-09T21:54:00,28.4330,-82.6670,-0.264,11114222 
COMPS,ioos:station:USF.COMPS:ARP:1,2019-10-10T00:54:00,28.4330,-82.6670,-0.027,11114222 
COMPS,ioos:station:USF.COMPS:ARP:1,2019-10-10T01:54:00,28.4330,-82.6670,0.17,11111222 
COMPS,ioos:station:USF.COMPS:ARP:1,2019-10-10T02:54:00,28.4330,-82.6670,0.315,11111222 
COMPS,ioos:station:USF.COMPS:ARP:1,2019-10-10T03:54:00,28.4330,-82.6670,0.403,11111222 
COMPS,ioos:station:USF.COMPS:ARP:1,2019-10-10T04:54:00,28.4330,-82.6670,0.41,11111222 
COMPS,ioos:station:USF.COMPS:ARP:1,2019-10-10T05:54:00,28.4330,-82.6670,0.351,11111222 
COMPS,ioos:station:USF.COMPS:ARP:1,2019-10-10T06:54:00,28.4330,-82.6670,0.226,11111222 
COMPS,ioos:station:USF.COMPS:ARP:1,2019-10-10T07:54:00,28.4330,-82.6670,0.115,11111222 
COMPS,ioos:station:USF.COMPS:ARP:1,2019-10-10T08:54:00,28.4330,-82.6670,-0.009,11114222 
COMPS,ioos:station:USF.COMPS:ARP:1,2019-10-10T09:54:00,28.4330,-82.6670,-0.091,11114222 
COMPS,ioos:station:USF.COMPS:ARP:1,2019-10-10T10:54:00,28.4330,-82.6670,-0.016,11114222 
COMPS,ioos:station:USF.COMPS:ARP:1,2019-10-10T11:54:00,28.4330,-82.6670,0.116,11111222 
COMPS,ioos:station:USF.COMPS:ARP:1,2019-10-10T12:54:00,28.4330,-82.6670,0.268,11111222 
COMPS,ioos:station:USF.COMPS:ARP:1,2019-10-10T13:54:00,28.4330,-82.6670,0.43,11111222 
COMPS,ioos:station:USF.COMPS:ARP:1,2019-10-10T15:54:00,28.4330,-82.6670,0.584,11111222 
COMPS,ioos:station:USF.COMPS:ARP:1,2019-10-10T16:54:00,28.4330,-82.6670,0.539,11111222 
COMPS,ioos:station:USF.COMPS:ARP:1,2019-10-10T17:54:00,28.4330,-82.6670,0.412,11111222 
COMPS,ioos:station:USF.COMPS:ARP:1,2019-10-10T18:54:00,28.4330,-82.6670,0.27,11111222 
COMPS,ioos:station:USF.COMPS:ARP:1,2019-10-10T19:54:00,28.4330,-82.6670,0.116,11111222 
COMPS,ioos:station:USF.COMPS:ARP:1,2019-10-10T20:54:00,28.4330,-82.6670,-0.046,11114222 
COMPS,ioos:station:USF.COMPS:ARP:1,2019-10-10T21:54:00,28.4330,-82.6670,-0.165,11114222 
COMPS,ioos:station:USF.COMPS:ARP:1,2019-10-10T22:54:00,28.4330,-82.6670,-0.256,11114222 
COMPS,ioos:station:USF.COMPS:ARP:1,2019-10-10T23:54:00,28.4330,-82.6670,-0.234,11114222 
COMPS,ioos:station:USF.COMPS:ARP:1,2019-10-11T00:54:00,28.4330,-82.6670,-0.097,11114222 
COMPS,ioos:station:USF.COMPS:ARP:1,2019-10-11T01:54:00,28.4330,-82.6670,0.086,11111222 
COMPS,ioos:station:USF.COMPS:ARP:1,2019-10-11T02:54:00,28.4330,-82.6670,0.242,11111222 
COMPS,ioos:station:USF.COMPS:ARP:1,2019-10-11T03:54:00,28.4330,-82.6670,0.365,11111222 
COMPS,ioos:station:USF.COMPS:ARP:1,2019-10-11T04:54:00,28.4330,-82.6670,0.417,11111222 
COMPS,ioos:station:USF.COMPS:ARP:1,2019-10-11T05:54:00,28.4330,-82.6670,0.343,11111222 
COMPS,ioos:station:USF.COMPS:ARP:1,2019-10-11T06:54:00,28.4330,-82.6670,0.251,11111222 
COMPS,ioos:station:USF.COMPS:ARP:1,2019-10-11T07:54:00,28.4330,-82.6670,0.137,11111222 
COMPS,ioos:station:USF.COMPS:ARP:1,2019-10-11T08:54:00,28.4330,-82.6670,0.025,11111222 
COMPS,ioos:station:USF.COMPS:ARP:1,2019-10-11T09:54:00,28.4330,-82.6670,-0.081,11114222 
COMPS,ioos:station:USF.COMPS:ARP:1,2019-10-11T10:54:00,28.4330,-82.6670,-0.143,11114222 
COMPS,ioos:station:USF.COMPS:ARP:1,2019-10-11T11:54:00,28.4330,-82.6670,-0.047,11114222 
COMPS,ioos:station:USF.COMPS:ARP:1,2019-10-11T12:54:00,28.4330,-82.6670,0.117,11111222 
COMPS,ioos:station:USF.COMPS:ARP:1,2019-10-11T13:54:00,28.4330,-82.6670,0.302,11111222 
COMPS,ioos:station:USF.COMPS:ARP:1,2019-10-11T14:54:00,28.4330,-82.6670,0.479,11111222 
COMPS,ioos:station:USF.COMPS:ARP:1,2019-10-11T15:54:00,28.4330,-82.6670,0.61,11111222 
COMPS,ioos:station:USF.COMPS:ARP:1,2019-10-11T16:54:00,28.4330,-82.6670,0.601,11111222 
COMPS,ioos:station:USF.COMPS:ARP:1,2019-10-11T17:54:00,28.4330,-82.6670,0.51,11111222 
COMPS,ioos:station:USF.COMPS:ARP:1,2019-10-11T18:54:00,28.4330,-82.6670,0.385,11111222 
COMPS,ioos:station:USF.COMPS:ARP:1,2019-10-11T19:54:00,28.4330,-82.6670,0.25,11111222 
COMPS,ioos:station:USF.COMPS:ARP:1,2019-10-11T20:54:00,28.4330,-82.6670,0.12,11111222 
COMPS,ioos:station:USF.COMPS:ARP:1,2019-10-11T21:54:00,28.4330,-82.6670,-0.014,11114222 
COMPS,ioos:station:USF.COMPS:ARP:1,2019-10-11T22:54:00,28.4330,-82.6670,-0.117,11114222 
COMPS,ioos:station:USF.COMPS:ARP:1,2019-10-11T23:54:00,28.4330,-82.6670,-0.138,11114222 
COMPS,ioos:station:USF.COMPS:ARP:1,2019-10-12T00:54:00,28.4330,-82.6670,0.016,11111222 
COMPS,ioos:station:USF.COMPS:ARP:1,2019-10-12T01:54:00,28.4330,-82.6670,0.164,11111222 
COMPS,ioos:station:USF.COMPS:ARP:1,2019-10-12T02:54:00,28.4330,-82.6670,0.331,11111222 
COMPS,ioos:station:USF.COMPS:ARP:1,2019-10-12T03:54:00,28.4330,-82.6670,0.506,11111222 
COMPS,ioos:station:USF.COMPS:ARP:1,2019-10-12T04:54:00,28.4330,-82.6670,0.58,11111222 
COMPS,ioos:station:USF.COMPS:ARP:1,2019-10-12T05:54:00,28.4330,-82.6670,0.519,11111222 
COMPS,ioos:station:USF.COMPS:ARP:1,2019-10-12T06:54:00,28.4330,-82.6670,0.415,11111222 
COMPS,ioos:station:USF.COMPS:ARP:1,2019-10-12T07:54:00,28.4330,-82.6670,0.272,11111222 
COMPS,ioos:station:USF.COMPS:ARP:1,2019-10-12T08:54:00,28.4330,-82.6670,0.115,11111222 
COMPS,ioos:station:USF.COMPS:ARP:1,2019-10-12T09:54:00,28.4330,-82.6670,-0.052,11114222 
COMPS,ioos:station:USF.COMPS:ARP:1,2019-10-12T10:54:00,28.4330,-82.6670,-0.166,11114222 